Location: Saint-Maurice-d�Ard�che
(44.5216°N, 4.4002°E)
Time: 23:00:21
(UTC+00:00)

Landsat 7 - Pass Details

Date: 30 March 2020
Orbit: 701 x 703 km, 98.1° (Epoch: 02 June)

Event Time Altitude Azimuth Distance (km) Brightness Sun altitude
Exits shadow 20:51:05 56° 9° (N) 835 4.2 -27.5°
Drops below altitude 10° 20:54:56 10° 350° (N) 2,179 6.9 -28.0°
Sets 20:57:12 0° 349° (N) 3,102 7.9 -28.3°
